map of JRO home
JRO - Airport
Location
City:  Kilimanjaro, Kilimanjaro, Tanzania
Name:Kilimanjaro International Airport
ICAO:HTKJ
IATA:JRO

Details
Type:Airport (Aerodrome, Airfield)
Use:Public/Civil, International (customs port of entry)
Latitude:325'46"S (-3.429443)
Longitude:3704'28"E (37.074444)
Elevation:2932 ft (894 m)
Variation:0.17W (WMM2015v2 magnetic declination)
0.00 annual change
Runways:1
Longest:11834 × 148 ft (3607 × 45 m), paved

Time
Time Zone:UTC+3
Local Time:

Weather
METAR:HTKJ 041300Z 10018KT 9999 FEW036CB SCT037 34/17 Q1010 NOSIG
TAF:HTKJ 041100Z 0412/0512 09010KT 9999 FEW032CB SCT034
BECMG 0417/0420 09015G25KT SCT028
BECMG 0423/0501 09005KT

Related Locations
Nearby:
Farthest:NHV: 11570 mi / 18621 km
Nuku Hiva, Marquesas Islands, PF

Find:

   beyond  
but within

Other Information
Maps:
NOTAMs:
Links:
Sources:

  
  • flag of Tanzania
  

Sectional Chart

Flight Planning
at skyvector.com

Satellite Image

Google Maps Satellite view

 

Copyright © 2004-2019 Karl L. Swartz. All rights reserved.
The Great Circle Mapper name and logo are trademarks of the Great Circle Mapper.
All other trademarks mentioned herein belong to their respective owners.
Please see credits for attibutions and further copyright information.

  Follow gcmap on Facebook Follow gcmap on Twitter GCmap on LinkedIn

hCard Microformat

Geo Microformat